Time,TemperatureF,DewpointF,PressureIn,WindDirection,WindDirectionDegrees,WindSpeedMPH,WindSpeedGustMPH,Humidity,HourlyPrecipIn,Conditions,Clouds,dailyrainin,SoftwareType,DateUTC
2013-08-07 00:00:00,69.6,67.2,29.88,SE,139,4.0,6.0,92,0.00,,---,0.01,VWS V14.00,2013-08-07 04:00:00,
2013-08-07 00:03:00,69.5,67.1,29.88,SE,146,6.0,7.0,92,0.00,,---,0.00,VWS V14.00,2013-08-07 04:03:00,
2013-08-07 00:08:00,69.4,67.0,29.88,SSE,147,4.0,7.0,92,0.00,,---,0.00,VWS V14.00,2013-08-07 04:08:00,
2013-08-07 00:13:00,69.4,67.0,29.88,SSE,152,4.0,8.0,92,0.00,,---,0.00,VWS V14.00,2013-08-07 04:13:00,
2013-08-07 00:18:00,69.4,67.3,29.88,SE,139,2.0,8.0,93,0.00,,---,0.00,VWS V14.00,2013-08-07 04:18:00,
2013-08-07 00:23:00,69.3,67.2,29.88,SE,140,0.0,8.0,93,0.00,,---,0.00,VWS V14.00,2013-08-07 04:23:00,
2013-08-07 00:27:00,69.2,67.1,29.88,SE,140,1.0,8.0,93,0.00,,---,0.00,VWS V14.00,2013-08-07 04:27:00,
2013-08-07 00:30:00,69.2,67.1,29.88,SE,140,1.0,8.0,93,0.00,,---,0.00,VWS V14.00,2013-08-07 04:30:00,
2013-08-07 00:33:00,69.2,67.1,29.88,SSE,157,4.0,7.0,93,0.00,,---,0.00,VWS V14.00,2013-08-07 04:33:00,
2013-08-07 00:38:00,69.1,67.0,29.88,SSE,157,5.0,7.0,93,0.00,,---,0.00,VWS V14.00,2013-08-07 04:38:00,
2013-08-07 00:43:00,69.0,66.9,29.87,SSE,159,4.0,7.0,93,0.00,,---,0.00,VWS V14.00,2013-08-07 04:43:00,
2013-08-07 00:48:00,69.0,66.9,29.87,SSE,150,4.0,7.0,93,0.00,,---,0.00,VWS V14.00,2013-08-07 04:48:00,
2013-08-07 00:53:00,68.9,66.8,29.87,SSE,150,4.0,7.0,93,0.00,,---,0.00,VWS V14.00,2013-08-07 04:53:00,
2013-08-07 00:58:00,68.8,66.7,29.87,SSE,150,2.0,5.0,93,0.00,,---,0.00,VWS V14.00,2013-08-07 04:58:00,
2013-08-07 01:00:00,68.8,66.7,29.87,SSE,150,2.0,7.0,93,0.00,,---,0.00,VWS V14.00,2013-08-07 05:00:00,
2013-08-07 01:03:00,68.9,67.1,29.87,SSE,151,4.0,7.0,94,0.00,,---,0.00,VWS V14.00,2013-08-07 05:03:00,
2013-08-07 01:08:00,68.9,66.8,29.87,SSE,149,0.0,7.0,93,0.00,,---,0.00,VWS V14.00,2013-08-07 05:08:00,
2013-08-07 01:13:00,69.0,66.9,29.87,SSE,150,0.0,7.0,93,0.00,,---,0.00,VWS V14.00,2013-08-07 05:13:00,
2013-08-07 01:18:00,69.0,66.9,29.87,SSE,150,2.0,7.0,93,0.00,,---,0.00,VWS V14.00,2013-08-07 05:18:00,
2013-08-07 01:23:00,69.0,66.9,29.87,SSE,150,2.0,7.0,93,0.00,,---,0.00,VWS V14.00,2013-08-07 05:23:00,
2013-08-07 01:28:00,69.0,66.9,29.87,SSE,150,4.0,5.0,93,0.00,,---,0.00,VWS V14.00,2013-08-07 05:28:00,
2013-08-07 01:30:00,69.0,66.9,29.87,SSE,150,0.0,7.0,93,0.00,,---,0.00,VWS V14.00,2013-08-07 05:30:00,
2013-08-07 01:33:00,69.0,66.9,29.87,SSE,150,0.0,5.0,93,0.00,,---,0.00,VWS V14.00,2013-08-07 05:33:00,
2013-08-07 01:38:00,69.0,66.9,29.86,SSE,150,0.0,5.0,93,0.00,,---,0.00,VWS V14.00,2013-08-07 05:38:00,
2013-08-07 01:44:00,68.9,66.8,29.87,SSE,150,1.0,5.0,93,0.00,,---,0.00,VWS V14.00,2013-08-07 05:44:00,
2013-08-07 01:49:00,68.9,66.8,29.86,SSE,150,0.0,5.0,93,0.00,,---,0.00,VWS V14.00,2013-08-07 05:49:00,
2013-08-07 01:54:00,68.8,66.7,29.86,SSE,150,0.0,5.0,93,0.00,,---,0.00,VWS V14.00,2013-08-07 05:54:00,
2013-08-07 01:59:00,68.6,66.5,29.86,SSE,150,4.0,4.0,93,0.00,,---,0.00,VWS V14.00,2013-08-07 05:59:00,
2013-08-07 02:00:00,68.7,66.6,29.86,SSE,150,2.0,5.0,93,0.00,,---,0.00,VWS V14.00,2013-08-07 06:00:00,
2013-08-07 02:04:00,68.6,66.5,29.86,SE,146,4.0,6.0,93,0.00,,---,0.00,VWS V14.00,2013-08-07 06:04:00,
2013-08-07 02:09:00,68.6,66.5,29.86,SE,146,2.0,6.0,93,0.00,,---,0.00,VWS V14.00,2013-08-07 06:09:00,
2013-08-07 02:14:00,68.5,66.4,29.86,SE,146,1.0,6.0,93,0.00,,---,0.00,VWS V14.00,2013-08-07 06:14:00,
2013-08-07 02:19:00,68.4,66.3,29.86,SE,146,0.0,6.0,93,0.00,,---,0.00,VWS V14.00,2013-08-07 06:19:00,
2013-08-07 02:24:00,68.3,66.2,29.86,SE,146,4.0,6.0,93,0.00,,---,0.00,VWS V14.00,2013-08-07 06:24:00,
2013-08-07 02:29:00,68.1,66.0,29.86,SE,146,0.0,2.0,93,0.00,,---,0.00,VWS V14.00,2013-08-07 06:29:00,
2013-08-07 02:30:00,68.1,66.0,29.86,SE,145,0.0,6.0,93,0.00,,---,0.00,VWS V14.00,2013-08-07 06:30:00,
2013-08-07 02:34:00,68.0,65.9,29.85,SE,146,0.0,2.0,93,0.00,,---,0.00,VWS V14.00,2013-08-07 06:34:00,
2013-08-07 02:39:00,67.9,65.8,29.86,SE,146,0.0,4.0,93,0.00,,---,0.00,VWS V14.00,2013-08-07 06:39:00,
2013-08-07 02:44:00,67.8,65.7,29.86,SE,146,0.0,5.0,93,0.00,,---,0.00,VWS V14.00,2013-08-07 06:44:00,
2013-08-07 02:49:00,67.7,65.9,29.86,SE,143,0.0,6.0,94,0.00,,---,0.00,VWS V14.00,2013-08-07 06:49:00,
2013-08-07 02:54:00,67.7,65.9,29.85,SE,143,0.0,6.0,94,0.00,,---,0.00,VWS V14.00,2013-08-07 06:54:00,
2013-08-07 02:59:00,67.6,65.8,29.86,SE,143,1.0,2.0,94,0.00,,---,0.00,VWS V14.00,2013-08-07 06:59:00,
2013-08-07 03:00:00,67.7,65.9,29.86,SE,143,0.0,6.0,94,0.00,,---,0.00,VWS V14.00,2013-08-07 07:00:00,
2013-08-07 03:04:00,67.6,65.8,29.85,SE,143,0.0,4.0,94,0.00,,---,0.00,VWS V14.00,2013-08-07 07:04:00,
2013-08-07 03:09:00,67.5,65.7,29.85,SE,143,2.0,4.0,94,0.00,,---,0.00,VWS V14.00,2013-08-07 07:09:00,
2013-08-07 03:14:00,67.5,65.7,29.85,SE,140,4.0,6.0,94,0.00,,---,0.00,VWS V14.00,2013-08-07 07:14:00,
2013-08-07 03:19:00,67.5,65.7,29.84,SE,142,1.0,6.0,94,0.00,,---,0.00,VWS V14.00,2013-08-07 07:19:00,
2013-08-07 03:24:00,67.5,65.7,29.84,SE,142,1.0,6.0,94,0.00,,---,0.00,VWS V14.00,2013-08-07 07:24:00,
2013-08-07 03:29:00,67.4,65.6,29.84,SE,141,0.0,4.0,94,0.00,,---,0.00,VWS V14.00,2013-08-07 07:29:00,
2013-08-07 03:30:00,67.4,65.6,29.84,SE,142,0.0,6.0,94,0.00,,---,0.00,VWS V14.00,2013-08-07 07:30:00,
2013-08-07 03:34:00,67.4,65.6,29.84,SE,142,0.0,4.0,94,0.00,,---,0.00,VWS V14.00,2013-08-07 07:34:00,
2013-08-07 03:39:00,67.4,65.6,29.84,SE,142,0.0,5.0,94,0.00,,---,0.00,VWS V14.00,2013-08-07 07:39:00,
2013-08-07 03:44:00,67.4,65.6,29.84,SE,142,4.0,5.0,94,0.00,,---,0.00,VWS V14.00,2013-08-07 07:44:00,
2013-08-07 03:49:00,67.3,65.5,29.84,SE,142,1.0,6.0,94,0.00,,---,0.00,VWS V14.00,2013-08-07 07:49:00,
2013-08-07 03:54:00,67.4,65.6,29.83,SE,142,2.0,6.0,94,0.00,,---,0.00,VWS V14.00,2013-08-07 07:54:00,
2013-08-07 03:59:00,67.3,65.5,29.83,SE,142,1.0,5.0,94,0.00,,---,0.00,VWS V14.00,2013-08-07 07:59:00,
2013-08-07 04:00:00,67.4,65.6,29.84,SE,142,0.0,6.0,94,0.00,,---,0.00,VWS V14.00,2013-08-07 08:00:00,
2013-08-07 04:04:00,67.3,65.5,29.83,SE,142,4.0,5.0,94,0.00,,---,0.00,VWS V14.00,2013-08-07 08:04:00,
2013-08-07 04:14:00,67.2,65.4,29.83,SE,141,5.0,6.0,94,0.00,,---,0.00,VWS V14.00,2013-08-07 08:14:00,
2013-08-07 04:19:00,67.2,65.4,29.82,SE,141,2.0,6.0,94,0.00,,---,0.00,VWS V14.00,2013-08-07 08:19:00,
2013-08-07 04:24:00,67.2,65.4,29.83,SE,142,5.0,7.0,94,0.00,,---,0.00,VWS V14.00,2013-08-07 08:24:00,
2013-08-07 04:29:00,67.3,65.8,29.81,SSE,154,7.0,9.0,95,0.00,,---,0.00,VWS V14.00,2013-08-07 08:29:00,
2013-08-07 04:30:00,67.2,65.7,29.81,SSE,152,6.0,10.0,95,0.00,,---,0.00,VWS V14.00,2013-08-07 08:30:00,
2013-08-07 04:34:00,67.4,65.9,29.80,SSE,161,8.0,12.0,95,0.00,,---,0.00,VWS V14.00,2013-08-07 08:34:00,
2013-08-07 04:39:00,67.5,66.0,29.80,South,176,7.0,12.0,95,0.00,,---,0.00,VWS V14.00,2013-08-07 08:39:00,
2013-08-07 04:44:00,67.6,66.1,29.79,SSE,157,4.0,12.0,95,0.00,,---,0.00,VWS V14.00,2013-08-07 08:44:00,
2013-08-07 04:49:00,67.8,66.3,29.78,SE,145,4.0,12.0,95,0.00,,---,0.00,VWS V14.00,2013-08-07 08:49:00,
2013-08-07 04:54:00,67.9,66.4,29.80,SSE,153,2.0,12.0,95,0.01,,---,0.01,VWS V14.00,2013-08-07 08:54:00,
2013-08-07 04:59:00,68.0,66.5,29.82,SSW,202,5.0,7.0,95,0.01,,---,0.01,VWS V14.00,2013-08-07 08:59:00,
2013-08-07 05:00:00,68.0,66.5,29.81,SW,220,4.0,12.0,95,0.01,,---,0.01,VWS V14.00,2013-08-07 09:00:00,
2013-08-07 05:04:00,68.1,66.6,29.84,SW,234,4.0,12.0,95,0.01,,---,0.01,VWS V14.00,2013-08-07 09:04:00,
2013-08-07 05:09:00,68.2,66.7,29.83,WSW,251,6.0,12.0,95,0.01,,---,0.01,VWS V14.00,2013-08-07 09:09:00,
2013-08-07 05:14:00,68.3,66.8,29.84,West,259,6.0,14.0,95,0.03,,---,0.03,VWS V14.00,2013-08-07 09:14:00,
2013-08-07 05:19:00,68.0,66.5,29.86,West,260,8.0,20.0,95,0.10,,---,0.10,VWS V14.00,2013-08-07 09:19:00,
2013-08-07 05:24:00,66.6,64.2,29.84,WSW,254,9.0,21.0,92,0.20,,---,0.20,VWS V14.00,2013-08-07 09:24:00,
2013-08-07 05:29:00,65.6,63.2,29.85,West,281,11.0,15.0,92,0.28,,---,0.28,VWS V14.00,2013-08-07 09:29:00,
2013-08-07 05:30:00,66.0,63.6,29.84,NW,316,5.0,21.0,92,0.23,,---,0.23,VWS V14.00,2013-08-07 09:30:00,
2013-08-07 05:34:00,64.7,62.3,29.86,West,277,7.0,17.0,92,0.37,,---,0.37,VWS V14.00,2013-08-07 09:34:00,
2013-08-07 05:39:00,64.3,61.9,29.88,NW,307,4.0,17.0,92,0.53,,---,0.53,VWS V14.00,2013-08-07 09:39:00,
2013-08-07 05:44:00,63.5,61.1,29.88,WNW,294,5.0,17.0,92,0.62,,---,0.62,VWS V14.00,2013-08-07 09:44:00,
2013-08-07 05:49:00,63.4,61.7,29.86,North,360,5.0,17.0,94,0.62,,---,0.62,VWS V14.00,2013-08-07 09:49:00,
2013-08-07 05:54:00,63.5,61.8,29.86,NNW,329,8.0,17.0,94,0.63,,---,0.63,VWS V14.00,2013-08-07 09:54:00,
2013-08-07 05:59:00,63.6,61.8,29.87,WNW,303,5.0,7.0,94,0.62,,---,0.63,VWS V14.00,2013-08-07 09:59:00,
2013-08-07 06:00:00,63.6,61.8,29.86,WNW,298,3.0,17.0,94,0.63,,---,0.63,VWS V14.00,2013-08-07 10:00:00,
2013-08-07 06:04:00,63.6,61.8,29.85,North,9,3.0,8.0,94,0.62,,---,0.63,VWS V14.00,2013-08-07 10:04:00,
2013-08-07 06:09:00,64.1,61.7,29.86,North,355,2.0,8.0,92,0.62,,---,0.63,VWS V14.00,2013-08-07 10:09:00,
2013-08-07 06:14:00,64.5,61.8,29.86,WNW,286,2.0,8.0,91,0.62,,---,0.63,VWS V14.00,2013-08-07 10:14:00,
2013-08-07 06:19:00,64.7,61.1,29.86,NW,320,4.0,12.0,88,0.62,,---,0.63,VWS V14.00,2013-08-07 10:19:00,
2013-08-07 06:24:00,66.3,61.3,29.86,NW,321,2.0,14.0,84,0.63,,---,0.64,VWS V14.00,2013-08-07 10:24:00,
2013-08-07 06:29:00,66.4,61.1,29.86,NW,313,1.0,9.0,83,0.42,,---,0.65,VWS V14.00,2013-08-07 10:29:00,
2013-08-07 06:30:00,66.4,61.1,29.86,WNW,288,8.0,14.0,83,0.63,,---,0.64,VWS V14.00,2013-08-07 10:30:00,
2013-08-07 06:34:00,65.9,61.3,29.86,West,275,4.0,9.0,85,0.43,,---,0.66,VWS V14.00,2013-08-07 10:34:00,
2013-08-07 06:39:00,65.4,61.1,29.86,West,275,0.0,9.0,86,0.46,,---,0.69,VWS V14.00,2013-08-07 10:39:00,
2013-08-07 06:44:00,65.0,61.0,29.84,West,275,2.0,9.0,87,0.48,,---,0.71,VWS V14.00,2013-08-07 10:44:00,
2013-08-07 06:49:00,64.5,61.2,29.82,SE,141,4.0,9.0,89,0.49,,---,0.72,VWS V14.00,2013-08-07 10:49:00,
2013-08-07 06:54:00,64.1,61.1,29.81,ESE,113,2.0,9.0,90,0.49,,---,0.72,VWS V14.00,2013-08-07 10:54:00,
2013-08-07 06:59:00,63.8,60.8,29.81,ESE,113,2.0,5.0,90,0.10,,---,0.73,VWS V14.00,2013-08-07 10:59:00,
2013-08-07 07:00:00,63.9,60.9,29.82,ESE,112,2.0,9.0,90,0.50,,---,0.73,VWS V14.00,2013-08-07 11:00:00,
2013-08-07 07:04:00,63.6,60.9,29.81,ESE,119,7.0,7.0,91,0.10,,---,0.73,VWS V14.00,2013-08-07 11:04:00,
2013-08-07 07:09:00,63.5,60.8,29.81,ESE,118,4.0,8.0,91,0.10,,---,0.73,VWS V14.00,2013-08-07 11:09:00,
2013-08-07 07:14:00,63.5,60.8,29.80,ESE,116,4.0,8.0,91,0.10,,---,0.73,VWS V14.00,2013-08-07 11:14:00,
2013-08-07 07:19:00,63.5,60.8,29.81,ESE,115,1.0,8.0,91,0.10,,---,0.73,VWS V14.00,2013-08-07 11:19:00,
2013-08-07 07:24:00,63.6,61.2,29.81,SSE,147,0.0,8.0,92,0.10,,---,0.73,VWS V14.00,2013-08-07 11:24:00,
2013-08-07 07:29:00,63.6,61.2,29.83,SSE,149,4.0,5.0,92,0.09,,---,0.73,VWS V14.00,2013-08-07 11:29:00,
2013-08-07 07:30:00,63.6,61.2,29.82,SSE,148,1.0,8.0,92,0.10,,---,0.73,VWS V14.00,2013-08-07 11:30:00,
2013-08-07 07:34:00,63.7,61.3,29.83,SSE,149,4.0,5.0,92,0.09,,---,0.73,VWS V14.00,2013-08-07 11:34:00,
2013-08-07 07:39:00,64.3,61.0,29.83,SSW,205,6.0,8.0,89,0.09,,---,0.73,VWS V14.00,2013-08-07 11:39:00,
2013-08-07 07:44:00,64.8,61.2,29.82,SSW,211,6.0,8.0,88,0.10,,---,0.74,VWS V14.00,2013-08-07 11:44:00,
2013-08-07 07:49:00,65.3,61.3,29.82,South,171,9.0,9.0,87,0.10,,---,0.74,VWS V14.00,2013-08-07 11:49:00,
2013-08-07 07:54:00,65.5,61.2,29.81,SSE,166,4.0,11.0,86,0.10,,---,0.74,VWS V14.00,2013-08-07 11:54:00,
2013-08-07 07:59:00,65.4,61.4,29.81,SW,219,4.0,8.0,87,0.01,,---,0.74,VWS V14.00,2013-08-07 11:59:00,
2013-08-07 08:00:00,65.4,61.1,29.81,SSW,201,4.0,11.0,86,0.10,,---,0.74,VWS V14.00,2013-08-07 12:00:00,
2013-08-07 08:04:00,65.2,61.6,29.80,SSE,147,0.0,8.0,88,0.01,,---,0.74,VWS V14.00,2013-08-07 12:04:00,
2013-08-07 08:09:00,65.0,61.7,29.80,SSE,157,10.0,10.0,89,0.01,,---,0.74,VWS V14.00,2013-08-07 12:09:00,
2013-08-07 08:14:00,64.9,61.6,29.80,SSE,168,4.0,10.0,89,0.01,,---,0.74,VWS V14.00,2013-08-07 12:14:00,
2013-08-07 08:19:00,65.0,61.7,29.80,SW,215,7.0,13.0,89,0.01,,---,0.74,VWS V14.00,2013-08-07 12:19:00,
2013-08-07 08:24:00,65.1,61.8,29.79,South,169,4.0,13.0,89,0.01,,---,0.74,VWS V14.00,2013-08-07 12:24:00,
2013-08-07 08:29:00,65.0,61.7,29.78,SSE,154,11.0,12.0,89,0.01,,---,0.74,VWS V14.00,2013-08-07 12:29:00,
2013-08-07 08:30:00,65.0,61.7,29.79,SE,145,7.0,13.0,89,0.01,,---,0.74,VWS V14.00,2013-08-07 12:30:00,
2013-08-07 08:35:00,65.2,61.9,29.78,SSE,154,7.0,14.0,89,0.01,,---,0.74,VWS V14.00,2013-08-07 12:35:00,
2013-08-07 08:40:00,65.2,61.9,29.79,SSE,148,9.0,14.0,89,0.01,,---,0.74,VWS V14.00,2013-08-07 12:40:00,
2013-08-07 08:45:00,65.2,61.9,29.80,ESE,115,6.0,14.0,89,0.01,,---,0.74,VWS V14.00,2013-08-07 12:45:00,
2013-08-07 08:50:00,65.2,61.9,29.81,SSW,213,9.0,14.0,89,0.01,,---,0.74,VWS V14.00,2013-08-07 12:50:00,
2013-08-07 08:55:00,65.2,61.9,29.81,South,186,5.0,14.0,89,0.01,,---,0.74,VWS V14.00,2013-08-07 12:55:00,
2013-08-07 09:00:00,65.1,61.8,29.81,SSW,213,4.0,8.0,89,0.00,,---,0.74,VWS V14.00,2013-08-07 13:00:00,
2013-08-07 09:05:00,65.0,61.7,29.81,South,186,3.0,8.0,89,0.00,,---,0.74,VWS V14.00,2013-08-07 13:05:00,
2013-08-07 09:10:00,65.0,61.7,29.81,SSW,203,3.0,13.0,89,0.00,,---,0.74,VWS V14.00,2013-08-07 13:10:00,
2013-08-07 09:15:00,65.1,61.8,29.82,SSW,202,9.0,13.0,89,0.00,,---,0.74,VWS V14.00,2013-08-07 13:15:00,
2013-08-07 09:20:00,65.3,62.0,29.82,SSW,202,2.0,13.0,89,0.00,,---,0.74,VWS V14.00,2013-08-07 13:20:00,
2013-08-07 09:25:00,65.4,62.1,29.81,SSW,206,7.0,13.0,89,0.00,,---,0.74,VWS V14.00,2013-08-07 13:25:00,
2013-08-07 09:30:00,65.4,62.1,29.82,SSW,209,7.0,12.0,89,0.00,,---,0.74,VWS V14.00,2013-08-07 13:30:00,
2013-08-07 09:35:00,65.4,62.1,29.81,SSW,202,10.0,12.0,89,0.00,,---,0.74,VWS V14.00,2013-08-07 13:35:00,
2013-08-07 09:40:00,65.4,62.1,29.82,SW,223,5.0,12.0,89,0.00,,---,0.74,VWS V14.00,2013-08-07 13:40:00,
2013-08-07 09:45:00,65.4,62.1,29.81,SSW,198,3.0,12.0,89,0.00,,---,0.74,VWS V14.00,2013-08-07 13:45:00,
2013-08-07 09:50:00,65.4,62.1,29.81,SW,221,4.0,12.0,89,0.00,,---,0.74,VWS V14.00,2013-08-07 13:50:00,
2013-08-07 09:55:00,65.6,62.3,29.81,SW,219,4.0,12.0,89,0.00,,---,0.74,VWS V14.00,2013-08-07 13:55:00,
2013-08-07 10:00:00,66.0,62.7,29.81,SW,217,8.0,9.0,89,0.00,,---,0.74,VWS V14.00,2013-08-07 14:00:00,
2013-08-07 10:09:00,66.6,63.3,29.82,SSW,213,5.0,10.0,89,0.00,,---,0.74,VWS V14.00,2013-08-07 14:09:00,
2013-08-07 10:14:00,66.9,63.2,29.82,SSW,210,9.0,10.0,88,0.00,,---,0.74,VWS V14.00,2013-08-07 14:14:00,
2013-08-07 10:19:00,67.2,63.5,29.82,SW,224,5.0,10.0,88,0.00,,---,0.74,VWS V14.00,2013-08-07 14:19:00,
2013-08-07 10:24:00,67.6,63.6,29.82,SSW,199,5.0,12.0,87,0.00,,---,0.74,VWS V14.00,2013-08-07 14:24:00,
2013-08-07 10:29:00,68.1,64.1,29.82,South,183,4.0,9.0,87,0.00,,---,0.74,VWS V14.00,2013-08-07 14:29:00,
2013-08-07 10:30:00,67.9,63.9,29.82,SSW,192,5.0,12.0,87,0.00,,---,0.74,VWS V14.00,2013-08-07 14:30:00,
2013-08-07 10:34:00,68.3,64.0,29.82,SSW,200,6.0,12.0,86,0.00,,---,0.74,VWS V14.00,2013-08-07 14:34:00,
2013-08-07 10:39:00,68.7,64.0,29.83,SW,221,6.0,13.0,85,0.00,,---,0.74,VWS V14.00,2013-08-07 14:39:00,
2013-08-07 10:44:00,68.8,64.1,29.83,WSW,249,2.0,13.0,85,0.00,,---,0.74,VWS V14.00,2013-08-07 14:44:00,
2013-08-07 10:49:00,68.7,64.0,29.83,West,274,4.0,13.0,85,0.00,,---,0.74,VWS V14.00,2013-08-07 14:49:00,
2013-08-07 10:54:00,68.5,63.8,29.84,West,264,6.0,13.0,85,0.00,,---,0.74,VWS V14.00,2013-08-07 14:54:00,
2013-08-07 10:59:00,68.4,63.7,29.84,SW,224,4.0,6.0,85,0.00,,---,0.74,VWS V14.00,2013-08-07 14:59:00,
2013-08-07 11:00:00,68.4,63.7,29.83,SW,215,4.0,13.0,85,0.00,,---,0.74,VWS V14.00,2013-08-07 15:00:00,
2013-08-07 11:04:00,68.3,64.0,29.84,SW,227,0.0,8.0,86,0.00,,---,0.74,VWS V14.00,2013-08-07 15:04:00,
2013-08-07 11:09:00,68.4,64.1,29.83,SW,232,4.0,8.0,86,0.00,,---,0.74,VWS V14.00,2013-08-07 15:09:00,
2013-08-07 11:14:00,68.6,64.2,29.84,West,263,6.0,8.0,86,0.00,,---,0.74,VWS V14.00,2013-08-07 15:14:00,
2013-08-07 11:19:00,68.7,64.3,29.84,SW,232,2.0,8.0,86,0.00,,---,0.74,VWS V14.00,2013-08-07 15:19:00,
2013-08-07 11:24:00,68.8,64.4,29.83,SW,220,4.0,8.0,86,0.00,,---,0.74,VWS V14.00,2013-08-07 15:24:00,
2013-08-07 11:29:00,68.9,64.6,29.83,West,260,4.0,6.0,86,0.00,,---,0.74,VWS V14.00,2013-08-07 15:29:00,
2013-08-07 11:30:00,68.8,64.4,29.83,SW,225,4.0,8.0,86,0.00,,---,0.74,VWS V14.00,2013-08-07 15:30:00,
2013-08-07 11:34:00,69.2,65.2,29.83,WSW,254,3.0,6.0,87,0.00,,---,0.74,VWS V14.00,2013-08-07 15:34:00,
2013-08-07 11:39:00,69.5,65.1,29.83,SW,225,6.0,9.0,86,0.00,,---,0.74,VWS V14.00,2013-08-07 15:39:00,
2013-08-07 11:44:00,70.4,65.7,29.84,WSW,247,5.0,10.0,85,0.00,,---,0.74,VWS V14.00,2013-08-07 15:44:00,
2013-08-07 11:49:00,71.2,66.1,29.84,WSW,250,3.0,11.0,84,0.00,,---,0.74,VWS V14.00,2013-08-07 15:49:00,
2013-08-07 11:54:00,71.8,66.0,29.84,SW,215,6.0,11.0,82,0.00,,---,0.74,VWS V14.00,2013-08-07 15:54:00,
2013-08-07 11:59:00,72.3,66.2,29.84,West,269,6.0,8.0,81,0.00,,---,0.74,VWS V14.00,2013-08-07 15:59:00,
2013-08-07 12:00:00,72.0,65.9,29.84,West,278,7.0,11.0,81,0.00,,---,0.74,VWS V14.00,2013-08-07 16:00:00,
2013-08-07 12:04:00,73.0,67.2,29.84,West,266,7.0,8.0,82,0.00,,---,0.74,VWS V14.00,2013-08-07 16:04:00,
2013-08-07 12:09:00,73.2,66.7,29.84,West,267,7.0,14.0,80,0.00,,---,0.74,VWS V14.00,2013-08-07 16:09:00,
2013-08-07 12:14:00,73.7,67.5,29.84,SW,228,5.0,14.0,81,0.00,,---,0.74,VWS V14.00,2013-08-07 16:14:00,
2013-08-07 12:19:00,74.4,67.5,29.84,SW,229,5.0,14.0,79,0.00,,---,0.74,VWS V14.00,2013-08-07 16:19:00,
2013-08-07 12:24:00,74.7,67.8,29.84,West,263,1.0,14.0,79,0.00,,---,0.74,VWS V14.00,2013-08-07 16:24:00,
2013-08-07 12:29:00,75.4,68.4,29.84,West,261,6.0,7.0,79,0.00,,---,0.74,VWS V14.00,2013-08-07 16:29:00,
2013-08-07 12:30:00,75.0,68.1,29.84,WNW,286,5.0,14.0,79,0.00,,---,0.74,VWS V14.00,2013-08-07 16:30:00,
2013-08-07 12:39:00,76.2,68.5,29.84,SSW,211,5.0,9.0,77,0.00,,---,0.74,VWS V14.00,2013-08-07 16:39:00,
2013-08-07 12:44:00,76.6,68.5,29.84,SW,233,4.0,10.0,76,0.00,,---,0.74,VWS V14.00,2013-08-07 16:44:00,
2013-08-07 12:49:00,76.4,68.7,29.84,West,271,8.0,10.0,77,0.00,,---,0.74,VWS V14.00,2013-08-07 16:49:00,
2013-08-07 12:54:00,76.7,68.6,29.84,West,263,8.0,12.0,76,0.00,,---,0.74,VWS V14.00,2013-08-07 16:54:00,
2013-08-07 13:00:00,77.1,68.6,29.84,WSW,250,8.0,12.0,75,0.00,,---,0.74,VWS V14.00,2013-08-07 17:00:00,
2013-08-07 13:04:00,77.8,68.5,29.84,West,271,8.0,12.0,73,0.00,,---,0.74,VWS V14.00,2013-08-07 17:04:00,
2013-08-07 13:09:00,77.9,68.2,29.83,WSW,247,8.0,14.0,72,0.00,,---,0.74,VWS V14.00,2013-08-07 17:09:00,
2013-08-07 13:14:00,78.0,68.2,29.83,WSW,238,5.0,14.0,72,0.00,,---,0.74,VWS V14.00,2013-08-07 17:14:00,
2013-08-07 13:19:00,78.4,68.6,29.83,SSW,208,4.0,14.0,72,0.00,,---,0.74,VWS V14.00,2013-08-07 17:19:00,
2013-08-07 13:24:00,78.5,67.9,29.83,SSW,202,9.0,15.0,70,0.00,,---,0.74,VWS V14.00,2013-08-07 17:24:00,
2013-08-07 13:29:00,78.5,68.3,29.83,West,264,11.0,12.0,71,0.00,,---,0.74,VWS V14.00,2013-08-07 17:29:00,
2013-08-07 13:30:00,78.5,68.3,29.83,SW,227,5.0,15.0,71,0.00,,---,0.74,VWS V14.00,2013-08-07 17:30:00,
2013-08-07 13:34:00,78.5,67.9,29.83,WSW,242,7.0,12.0,70,0.00,,---,0.74,VWS V14.00,2013-08-07 17:34:00,
2013-08-07 13:39:00,78.8,68.6,29.83,WSW,256,4.0,12.0,71,0.00,,---,0.74,VWS V14.00,2013-08-07 17:39:00,
2013-08-07 13:44:00,79.1,68.1,29.83,SW,227,13.0,14.0,69,0.00,,---,0.74,VWS V14.00,2013-08-07 17:44:00,
2013-08-07 13:49:00,78.9,67.9,29.82,West,278,10.0,14.0,69,0.00,,---,0.74,VWS V14.00,2013-08-07 17:49:00,
2013-08-07 13:54:00,79.2,68.2,29.82,WSW,254,5.0,14.0,69,0.00,,---,0.74,VWS V14.00,2013-08-07 17:54:00,
2013-08-07 13:59:00,79.2,68.2,29.82,SW,214,6.0,11.0,69,0.00,,---,0.74,VWS V14.00,2013-08-07 17:59:00,
2013-08-07 14:00:00,79.2,67.7,29.82,West,278,8.0,14.0,68,0.00,,---,0.74,VWS V14.00,2013-08-07 18:00:00,
2013-08-07 14:04:00,79.8,68.7,29.82,SW,231,3.0,11.0,69,0.00,,---,0.74,VWS V14.00,2013-08-07 18:04:00,
2013-08-07 14:09:00,80.4,69.3,29.82,West,259,9.0,12.0,69,0.00,,---,0.74,VWS V14.00,2013-08-07 18:09:00,
2013-08-07 14:14:00,80.3,68.3,29.82,West,263,10.0,13.0,67,0.00,,---,0.74,VWS V14.00,2013-08-07 18:14:00,
2013-08-07 14:19:00,79.7,68.6,29.82,West,270,4.0,13.0,69,0.00,,---,0.74,VWS V14.00,2013-08-07 18:19:00,
2013-08-07 14:24:00,79.9,68.4,29.82,West,262,9.0,13.0,68,0.00,,---,0.74,VWS V14.00,2013-08-07 18:24:00,
2013-08-07 14:29:00,80.1,69.0,29.82,WSW,257,10.0,10.0,69,0.00,,---,0.74,VWS V14.00,2013-08-07 18:29:00,
2013-08-07 14:30:00,79.8,68.3,29.82,West,276,7.0,13.0,68,0.00,,---,0.74,VWS V14.00,2013-08-07 18:30:00,
2013-08-07 14:34:00,80.4,68.9,29.82,South,190,5.0,12.0,68,0.00,,---,0.74,VWS V14.00,2013-08-07 18:34:00,
2013-08-07 14:39:00,80.2,68.7,29.82,WSW,247,6.0,12.0,68,0.00,,---,0.74,VWS V14.00,2013-08-07 18:39:00,
2013-08-07 14:44:00,80.1,69.0,29.82,SW,229,9.0,12.0,69,0.00,,---,0.74,VWS V14.00,2013-08-07 18:44:00,
2013-08-07 14:49:00,80.0,68.9,29.82,WSW,241,4.0,12.0,69,0.00,,---,0.74,VWS V14.00,2013-08-07 18:49:00,
2013-08-07 14:54:00,79.9,69.2,29.82,WSW,250,7.0,12.0,70,0.00,,---,0.74,VWS V14.00,2013-08-07 18:54:00,
2013-08-07 15:00:00,80.0,69.3,29.82,West,262,6.0,11.0,70,0.00,,---,0.74,VWS V14.00,2013-08-07 19:00:00,
2013-08-07 15:05:00,80.0,69.3,29.83,WSW,257,5.0,12.0,70,0.00,,---,0.74,VWS V14.00,2013-08-07 19:05:00,
2013-08-07 15:10:00,80.9,69.8,29.83,SW,233,4.0,13.0,69,0.00,,---,0.74,VWS V14.00,2013-08-07 19:10:00,
2013-08-07 15:15:00,81.3,69.7,29.83,West,260,6.0,13.0,68,0.00,,---,0.74,VWS V14.00,2013-08-07 19:15:00,
2013-08-07 15:20:00,81.1,70.0,29.83,WNW,291,3.0,13.0,69,0.00,,---,0.74,VWS V14.00,2013-08-07 19:20:00,
2013-08-07 15:25:00,80.6,69.5,29.83,SW,229,7.0,13.0,69,0.00,,---,0.74,VWS V14.00,2013-08-07 19:25:00,
2013-08-07 15:30:00,80.5,70.7,29.83,WSW,253,4.0,8.0,72,0.00,,---,0.74,VWS V14.00,2013-08-07 19:30:00,
2013-08-07 15:35:00,81.0,70.7,29.83,WSW,256,5.0,9.0,71,0.00,,---,0.74,VWS V14.00,2013-08-07 19:35:00,
2013-08-07 15:40:00,81.1,70.0,29.83,WSW,251,9.0,11.0,69,0.00,,---,0.74,VWS V14.00,2013-08-07 19:40:00,
2013-08-07 15:45:00,81.3,70.6,29.83,NW,306,6.0,11.0,70,0.00,,---,0.74,VWS V14.00,2013-08-07 19:45:00,
2013-08-07 15:50:00,80.8,70.5,29.83,SW,232,4.0,11.0,71,0.00,,---,0.74,VWS V14.00,2013-08-07 19:50:00,
2013-08-07 15:55:00,80.8,70.5,29.83,West,274,2.0,11.0,71,0.00,,---,0.74,VWS V14.00,2013-08-07 19:55:00,
2013-08-07 16:00:00,81.4,71.1,29.83,WSW,250,5.0,7.0,71,0.00,,---,0.74,VWS V14.00,2013-08-07 20:00:00,
2013-08-07 16:05:00,82.0,70.8,29.83,WSW,257,8.0,12.0,69,0.00,,---,0.74,VWS V14.00,2013-08-07 20:05:00,
2013-08-07 16:10:00,82.1,70.5,29.83,SW,215,8.0,12.0,68,0.00,,---,0.74,VWS V14.00,2013-08-07 20:10:00,
2013-08-07 16:15:00,82.0,69.5,29.83,North,360,6.0,13.0,66,0.00,,---,0.74,VWS V14.00,2013-08-07 20:15:00,
2013-08-07 16:20:00,82.2,69.7,29.83,WSW,253,4.0,13.0,66,0.00,,---,0.74,VWS V14.00,2013-08-07 20:20:00,
2013-08-07 16:25:00,82.0,69.5,29.83,West,270,5.0,13.0,66,0.00,,---,0.74,VWS V14.00,2013-08-07 20:25:00,
2013-08-07 16:30:00,81.7,70.1,29.82,WSW,239,5.0,7.0,68,0.00,,---,0.74,VWS V14.00,2013-08-07 20:30:00,
2013-08-07 16:35:00,81.8,69.8,29.82,West,265,5.0,10.0,67,0.00,,---,0.74,VWS V14.00,2013-08-07 20:35:00,
2013-08-07 16:40:00,82.4,69.9,29.82,West,267,4.0,10.0,66,0.00,,---,0.74,VWS V14.00,2013-08-07 20:40:00,
2013-08-07 16:45:00,83.1,69.7,29.83,West,265,4.0,10.0,64,0.00,,---,0.74,VWS V14.00,2013-08-07 20:45:00,
2013-08-07 16:50:00,83.3,70.3,29.82,SW,233,5.0,10.0,65,0.00,,---,0.74,VWS V14.00,2013-08-07 20:50:00,
2013-08-07 16:55:00,83.1,69.2,29.82,WSW,257,9.0,13.0,63,0.00,,---,0.74,VWS V14.00,2013-08-07 20:55:00,
2013-08-07 17:00:00,83.1,69.2,29.83,West,266,4.0,11.0,63,0.00,,---,0.74,VWS V14.00,2013-08-07 21:00:00,
2013-08-07 17:05:00,82.9,69.9,29.83,West,275,4.0,11.0,65,0.00,,---,0.74,VWS V14.00,2013-08-07 21:05:00,
2013-08-07 17:10:00,82.4,69.5,29.83,WSW,257,5.0,11.0,65,0.00,,---,0.74,VWS V14.00,2013-08-07 21:10:00,
2013-08-07 17:15:00,82.7,70.6,29.82,West,275,4.0,11.0,67,0.00,,---,0.74,VWS V14.00,2013-08-07 21:15:00,
2013-08-07 17:20:00,83.3,70.8,29.82,West,265,3.0,11.0,66,0.00,,---,0.74,VWS V14.00,2013-08-07 21:20:00,
2013-08-07 17:25:00,83.3,69.9,29.82,West,280,8.0,11.0,64,0.00,,---,0.74,VWS V14.00,2013-08-07 21:25:00,
2013-08-07 17:30:00,83.0,69.6,29.83,West,264,4.0,10.0,64,0.00,,---,0.74,VWS V14.00,2013-08-07 21:30:00,
2013-08-07 17:35:00,83.3,70.8,29.83,WSW,248,6.0,10.0,66,0.00,,---,0.74,VWS V14.00,2013-08-07 21:35:00,
2013-08-07 17:40:00,83.3,69.4,29.83,West,269,5.0,12.0,63,0.00,,---,0.74,VWS V14.00,2013-08-07 21:40:00,
2013-08-07 17:45:00,83.2,69.3,29.83,NW,317,2.0,12.0,63,0.00,,---,0.74,VWS V14.00,2013-08-07 21:45:00,
2013-08-07 17:50:00,83.3,69.4,29.83,West,265,6.0,12.0,63,0.00,,---,0.74,VWS V14.00,2013-08-07 21:50:00,
2013-08-07 17:55:00,83.2,69.8,29.83,West,263,4.0,12.0,64,0.00,,---,0.74,VWS V14.00,2013-08-07 21:55:00,
2013-08-07 18:00:00,83.5,70.5,29.83,West,279,3.0,6.0,65,0.00,,---,0.74,VWS V14.00,2013-08-07 22:00:00,
2013-08-07 18:05:00,83.6,69.7,29.83,NW,306,3.0,7.0,63,0.00,,---,0.74,VWS V14.00,2013-08-07 22:05:00,
2013-08-07 18:10:00,83.6,69.7,29.83,NNW,327,2.0,7.0,63,0.00,,---,0.74,VWS V14.00,2013-08-07 22:10:00,
2013-08-07 18:15:00,83.8,70.3,29.83,WSW,256,6.0,8.0,64,0.00,,---,0.74,VWS V14.00,2013-08-07 22:15:00,
2013-08-07 18:20:00,83.5,69.1,29.83,West,261,7.0,9.0,62,0.00,,---,0.74,VWS V14.00,2013-08-07 22:20:00,
2013-08-07 18:25:00,83.3,68.9,29.83,WSW,255,6.0,10.0,62,0.00,,---,0.74,VWS V14.00,2013-08-07 22:25:00,
2013-08-07 18:30:00,82.9,68.1,29.83,West,265,6.0,11.0,61,0.00,,---,0.74,VWS V14.00,2013-08-07 22:30:00,
2013-08-07 18:35:00,82.6,68.3,29.83,WSW,253,5.0,11.0,62,0.00,,---,0.74,VWS V14.00,2013-08-07 22:35:00,
2013-08-07 18:40:00,82.7,67.9,29.83,West,279,9.0,11.0,61,0.00,,---,0.74,VWS V14.00,2013-08-07 22:40:00,
2013-08-07 18:45:00,82.4,67.6,29.83,WSW,254,6.0,12.0,61,0.00,,---,0.74,VWS V14.00,2013-08-07 22:45:00,
2013-08-07 18:50:00,82.3,67.5,29.83,WSW,246,5.0,12.0,61,0.00,,---,0.74,VWS V14.00,2013-08-07 22:50:00,
2013-08-07 18:55:00,82.2,67.4,29.83,WSW,254,8.0,13.0,61,0.00,,---,0.74,VWS V14.00,2013-08-07 22:55:00,
2013-08-07 18:57:00,82.2,66.9,29.83,West,260,5.0,13.0,60,0.00,,---,0.74,VWS V14.00,2013-08-07 22:57:00,
2013-08-07 19:00:00,82.2,66.9,29.83,West,260,5.0,13.0,60,0.00,,---,0.74,VWS V14.00,2013-08-07 23:00:00,
2013-08-07 19:05:00,82.3,67.5,29.83,West,261,6.0,10.0,61,0.00,,---,0.74,VWS V14.00,2013-08-07 23:05:00,
2013-08-07 19:10:00,82.3,68.0,29.83,WSW,254,5.0,10.0,62,0.00,,---,0.74,VWS V14.00,2013-08-07 23:10:00,
2013-08-07 19:15:00,82.2,67.9,29.83,SW,221,5.0,10.0,62,0.00,,---,0.74,VWS V14.00,2013-08-07 23:15:00,
2013-08-07 19:20:00,82.1,68.3,29.83,WSW,250,2.0,10.0,63,0.00,,---,0.74,VWS V14.00,2013-08-07 23:20:00,
2013-08-07 19:25:00,82.0,68.2,29.83,West,263,3.0,10.0,63,0.00,,---,0.74,VWS V14.00,2013-08-07 23:25:00,
2013-08-07 19:30:00,81.7,67.9,29.83,West,271,3.0,6.0,63,0.00,,---,0.74,VWS V14.00,2013-08-07 23:30:00,
2013-08-07 19:35:00,81.2,67.9,29.84,West,269,2.0,7.0,64,0.00,,---,0.74,VWS V14.00,2013-08-07 23:35:00,
2013-08-07 19:40:00,80.5,67.7,29.84,WNW,289,2.0,7.0,65,0.00,,---,0.74,VWS V14.00,2013-08-07 23:40:00,
2013-08-07 19:45:00,80.1,67.7,29.84,WNW,288,0.0,7.0,66,0.00,,---,0.74,VWS V14.00,2013-08-07 23:45:00,
2013-08-07 19:50:00,79.8,67.9,29.84,WNW,288,0.0,7.0,67,0.00,,---,0.74,VWS V14.00,2013-08-07 23:50:00,
2013-08-07 19:55:00,79.6,68.1,29.84,WNW,289,2.0,7.0,68,0.00,,---,0.74,VWS V14.00,2013-08-07 23:55:00,
2013-08-07 20:00:00,79.5,68.4,29.84,WNW,289,0.0,3.0,69,0.00,,---,0.74,VWS V14.00,2013-08-08 00:00:00,
2013-08-07 20:05:00,79.0,68.4,29.84,WNW,288,0.0,3.0,70,0.00,,---,0.74,VWS V14.00,2013-08-08 00:05:00,
2013-08-07 20:10:00,78.4,68.6,29.84,WNW,288,2.0,3.0,72,0.00,,---,0.74,VWS V14.00,2013-08-08 00:10:00,
2013-08-07 20:15:00,77.9,68.2,29.85,WNW,289,0.0,3.0,72,0.00,,---,0.74,VWS V14.00,2013-08-08 00:15:00,
2013-08-07 20:20:00,77.7,68.0,29.85,WNW,287,0.0,4.0,72,0.00,,---,0.74,VWS V14.00,2013-08-08 00:20:00,
2013-08-07 20:25:00,77.5,68.2,29.85,WNW,288,1.0,4.0,73,0.00,,---,0.74,VWS V14.00,2013-08-08 00:25:00,
2013-08-07 20:30:00,77.1,67.8,29.85,WNW,288,1.0,3.0,73,0.00,,---,0.74,VWS V14.00,2013-08-08 00:30:00,
2013-08-07 20:35:00,76.7,67.8,29.85,WNW,288,0.0,3.0,74,0.00,,---,0.74,VWS V14.00,2013-08-08 00:35:00,
2013-08-07 20:40:00,76.2,67.3,29.85,WNW,288,0.0,3.0,74,0.00,,---,0.74,VWS V14.00,2013-08-08 00:40:00,
2013-08-07 20:45:00,75.6,67.5,29.85,WNW,288,1.0,3.0,76,0.00,,---,0.74,VWS V14.00,2013-08-08 00:45:00,
2013-08-07 20:51:00,75.0,67.3,29.85,WNW,288,0.0,3.0,77,0.00,,---,0.74,VWS V14.00,2013-08-08 00:51:00,
2013-08-07 20:56:00,74.5,67.2,29.86,WNW,288,2.0,3.0,78,0.00,,---,0.74,VWS V14.00,2013-08-08 00:56:00,
2013-08-07 21:00:00,74.4,67.1,29.86,WNW,288,1.0,3.0,78,0.00,,---,0.74,VWS V14.00,2013-08-08 01:00:00,
2013-08-07 21:01:00,74.0,66.7,29.86,WNW,288,0.0,2.0,78,0.00,,---,0.74,VWS V14.00,2013-08-08 01:01:00,
2013-08-07 21:06:00,73.6,66.7,29.86,WNW,288,2.0,2.0,79,0.00,,---,0.74,VWS V14.00,2013-08-08 01:06:00,
2013-08-07 21:11:00,73.2,66.7,29.86,WNW,288,1.0,2.0,80,0.00,,---,0.74,VWS V14.00,2013-08-08 01:11:00,
2013-08-07 21:16:00,72.8,66.3,29.87,WNW,288,1.0,2.0,80,0.00,,---,0.74,VWS V14.00,2013-08-08 01:16:00,
2013-08-07 21:21:00,72.5,66.3,29.87,WNW,288,3.0,4.0,81,0.00,,---,0.74,VWS V14.00,2013-08-08 01:21:00,
2013-08-07 21:26:00,72.2,66.1,29.87,WNW,288,3.0,4.0,81,0.00,,---,0.74,VWS V14.00,2013-08-08 01:26:00,
2013-08-07 21:30:00,72.2,66.1,29.87,WNW,288,0.0,4.0,81,0.00,,---,0.74,VWS V14.00,2013-08-08 01:30:00,
2013-08-07 21:31:00,72.1,65.9,29.87,WNW,288,3.0,3.0,81,0.00,,---,0.74,VWS V14.00,2013-08-08 01:31:00,
2013-08-07 21:36:00,71.9,65.8,29.88,WNW,289,1.0,4.0,81,0.00,,---,0.74,VWS V14.00,2013-08-08 01:36:00,
2013-08-07 21:41:00,71.7,65.6,29.88,WNW,288,0.0,4.0,81,0.00,,---,0.74,VWS V14.00,2013-08-08 01:41:00,
2013-08-07 21:46:00,71.5,65.4,29.88,WNW,288,1.0,4.0,81,0.00,,---,0.74,VWS V14.00,2013-08-08 01:46:00,
2013-08-07 21:51:00,71.3,65.2,29.88,WNW,288,0.0,4.0,81,0.00,,---,0.74,VWS V14.00,2013-08-08 01:51:00,
2013-08-07 21:56:00,71.1,64.6,29.89,WNW,288,0.0,4.0,80,0.00,,---,0.74,VWS V14.00,2013-08-08 01:56:00,
2013-08-07 22:00:00,71.0,64.5,29.89,WNW,288,1.0,4.0,80,0.00,,---,0.74,VWS V14.00,2013-08-08 02:00:00,
2013-08-07 22:01:00,70.9,64.4,29.89,WNW,291,1.0,4.0,80,0.00,,---,0.74,VWS V14.00,2013-08-08 02:01:00,
2013-08-07 22:06:00,70.8,64.3,29.89,WNW,291,0.0,4.0,80,0.00,,---,0.74,VWS V14.00,2013-08-08 02:06:00,
2013-08-07 22:11:00,70.6,64.1,29.90,WNW,291,0.0,4.0,80,0.00,,---,0.74,VWS V14.00,2013-08-08 02:11:00,
2013-08-07 22:16:00,70.4,63.9,29.90,WNW,292,0.0,4.0,80,0.00,,---,0.74,VWS V14.00,2013-08-08 02:16:00,
2013-08-07 22:21:00,70.2,64.1,29.91,WNW,291,1.0,4.0,81,0.00,,---,0.74,VWS V14.00,2013-08-08 02:21:00,
2013-08-07 22:26:00,70.0,63.9,29.91,WNW,292,0.0,4.0,81,0.00,,---,0.74,VWS V14.00,2013-08-08 02:26:00,
2013-08-07 22:30:00,69.9,63.8,29.91,WNW,292,1.0,4.0,81,0.00,,---,0.74,VWS V14.00,2013-08-08 02:30:00,
2013-08-07 22:31:00,69.7,64.0,29.91,WNW,291,1.0,3.0,82,0.00,,---,0.74,VWS V14.00,2013-08-08 02:31:00,
2013-08-07 22:36:00,69.4,63.7,29.91,WNW,291,1.0,3.0,82,0.00,,---,0.74,VWS V14.00,2013-08-08 02:36:00,
2013-08-07 22:41:00,69.1,63.7,29.92,WNW,291,0.0,3.0,83,0.00,,---,0.74,VWS V14.00,2013-08-08 02:41:00,
2013-08-07 22:46:00,68.9,63.5,29.92,WNW,291,1.0,3.0,83,0.00,,---,0.74,VWS V14.00,2013-08-08 02:46:00,
2013-08-07 22:51:00,68.7,63.3,29.92,WNW,292,1.0,3.0,83,0.00,,---,0.74,VWS V14.00,2013-08-08 02:51:00,
2013-08-07 22:56:00,68.6,63.2,29.93,WNW,294,0.0,4.0,83,0.00,,---,0.74,VWS V14.00,2013-08-08 02:56:00,
2013-08-07 23:00:00,68.6,63.2,29.93,WNW,294,1.0,4.0,83,0.00,,---,0.74,VWS V14.00,2013-08-08 03:00:00,
2013-08-07 23:01:00,68.6,63.6,29.93,NW,310,2.0,5.0,84,0.00,,---,0.74,VWS V14.00,2013-08-08 03:01:00,
2013-08-07 23:06:00,68.5,63.5,29.93,WNW,297,1.0,5.0,84,0.00,,---,0.74,VWS V14.00,2013-08-08 03:06:00,
2013-08-07 23:11:00,68.5,63.1,29.93,NW,326,1.0,6.0,83,0.00,,---,0.74,VWS V14.00,2013-08-08 03:11:00,
2013-08-07 23:16:00,68.6,63.2,29.94,NW,306,1.0,6.0,83,0.00,,---,0.74,VWS V14.00,2013-08-08 03:16:00,
2013-08-07 23:21:00,68.6,63.2,29.94,NW,304,3.0,6.0,83,0.00,,---,0.74,VWS V14.00,2013-08-08 03:21:00,
2013-08-07 23:26:00,68.6,63.2,29.94,NNW,336,2.0,6.0,83,0.00,,---,0.74,VWS V14.00,2013-08-08 03:26:00,
2013-08-07 23:30:00,68.6,63.2,29.94,NW,309,2.0,6.0,83,0.00,,---,0.74,VWS V14.00,2013-08-08 03:30:00,
2013-08-07 23:31:00,68.6,63.2,29.94,NW,323,1.0,5.0,83,0.00,,---,0.74,VWS V14.00,2013-08-08 03:31:00,
2013-08-07 23:36:00,68.6,63.2,29.94,NNW,327,2.0,5.0,83,0.00,,---,0.74,VWS V14.00,2013-08-08 03:36:00,
2013-08-07 23:41:00,68.6,63.2,29.95,NW,314,1.0,5.0,83,0.00,,---,0.74,VWS V14.00,2013-08-08 03:41:00,
2013-08-07 23:46:00,68.6,63.2,29.95,NW,313,0.0,5.0,83,0.00,,---,0.74,VWS V14.00,2013-08-08 03:46:00,
2013-08-07 23:51:00,68.6,62.9,29.95,NNW,338,2.0,5.0,82,0.00,,---,0.74,VWS V14.00,2013-08-08 03:51:00,
2013-08-07 23:56:00,68.6,63.2,29.95,NNW,344,0.0,5.0,83,0.00,,---,0.74,VWS V14.00,2013-08-08 03:56:00,